Regional Weather Roundup
Issued by NWS

Home | Current Version | Previous Version | Text Only | Print | Product List | Glossary Off
Versions: 1 2 3 4 5 6 7 8 9 10 11 12 13 14 15 16 17 18 19 20 21 22 23 24 25 26 27 28 29 30 31 32 33 34 35 36 37 38 39 40 41 42 43 44 45 46 47 48 49 50

000
ASUS43 KIND 252209
RWRIN

WEATHER ROUNDUP FOR INDIANA
NATIONAL WEATHER SERVICE INDIANAPOLIS IN
500 PM EST TUE NOV 25 2014

NOTE: "FAIR" INDICATES FEW OR NO CLOUDS BELOW 12,000 FEET WITH NO
SIGNIFICANT WEATHER AND/OR OBSTRUCTIONS TO VISIBILITY.

* - STATION DOES NOT REPORT WEATHER SUCH AS PRECIPITATION OR FOG.

+ - STATION NOT QUALITY CONTROLLED BY THE NATIONAL WEATHER SERVICE.
    USE DATA WITH CAUTION...ESPECIALLY DEWPOINT AND RELATIVE
    HUMIDITY OBSERVATIONS.

INZ001>003-010>013-019-020-252300-
NORTHWEST INDIANA

CITY           SKY/WX    TMP DP  RH WIND       PRES   REMARKS
GARY /AIRPORT/ MOCLDY    27  18  69 W8G20     30.16R WCI  18
KNOX *+        CLOUDY    26  19  72 W9        30.15R WCI  17
LA PORTE +     CLOUDY    28  20  73 SW6       30.15R WCI  21
MICHIGAN CITY+ CLOUDY    27  18  69 SW7       30.16R WCI  19
MONTICELLO +   CLOUDY    26  20  79 W6        30.16R WCI  19
RENSSELAER +   CLOUDY    27  23  86 W8        30.16S WCI  18
VALPARAISO     CLOUDY    25  18  74 SW9       30.15R WCI  15

$$

LMZ046-743>745-252300-
SOUTHERN LAKE MICHIGAN

STATION/POSITION TIME  TEMP WIND        PRES
                       AIR  DIR/SP/G
                 (UTC) (F)  (DEG/KT/KT) (MB)
MICHIGAN CITY    2200   26  190/ 11/ 12   N/A

$$

INZ004-005-014>016-021>024-252300-
NORTH CENTRAL INDIANA

CITY           SKY/WX    TMP DP  RH WIND       PRES   REMARKS
ELKHART        CLOUDY    28  18  64 W8        30.14R WCI  20
GOSHEN         CLOUDY    27  19  72 W7        30.14R WCI  19
LOGANSPORT +   CLOUDY    27  19  74 W5        30.16S WCI  21
PERU/GRISSOM   CLOUDY    26  23  90 NW8       30.16R WCI  17
ROCHESTER +    CLOUDY    30  23  74 W5        30.15S WCI  25
SOUTH BEND     CLOUDY    28  19  69 SW6       30.14R WCI  22
WARSAW +       CLOUDY    27  19  74 W5        30.14S WCI  21

$$

INZ006>009-017-018-025>027-252300-
NORTHEAST INDIANA

CITY           SKY/WX    TMP DP  RH WIND       PRES   REMARKS
ANGOLA *+      CLOUDY    27  19  74 VRB7      30.13R WCI  19
AUBURN +       CLOUDY    28  19  69 W6        30.15R WCI  22
FORT WAYNE     CLOUDY    27  20  75 W9        30.16R WCI  18
HUNTINGTON +   CLOUDY    26  20  78 W3        30.16R

$$

INZ028-029-035-036-043>045-051>053-252300-
WEST CENTRAL INDIANA

CITY           SKY/WX    TMP DP  RH WIND       PRES   REMARKS
CRAWFORDSVL +  CLOUDY    25  19  80 W6        30.16  WCI  18
GREENCASTLE +  CLOUDY    28  23  80 NW5       30.16S WCI  23
LAFAYETTE      CLOUDY    26  20  77 W6        30.16S WCI  19
TERRE HAUTE    CLOUDY    30  22  72 N7        30.17F WCI  23

$$

INZ030>032-037>040-046>048-054>057-064-065-252300-
CENTRAL INDIANA

CITY           SKY/WX    TMP DP  RH WIND       PRES   REMARKS
CP ATTERBURY + CLOUDY    32  27  80 NW6       30.16R WCI  26
COLUMBUS       MOCLDY    34  28  80 NW9       30.15S WCI  26
FRANKFORT +    CLOUDY    28  24  85 SW5       30.18R WCI  23
GREENWOOD *+   CLOUDY    30  21  69 NW7       30.16  WCI  23
INDIANAPOLIS   CLOUDY    29  23  78 NW8       30.16R WCI  21
-EAGLE CREEK   CLOUDY    29  23  78 NW9       30.16R WCI  20
KOKOMO *+      CLOUDY    27  19  74 W10       30.17R WCI  17
MARION +         N/A     27  22  82 W9        30.17R HAZE    WCI  18
MT COMFORT *+  CLOUDY    30  19  64 NW8       30.16R WCI  23
SHELBYVILLE    CLOUDY    32  24  72 NW7       30.15R WCI  26
ZIONSVILLE +   CLOUDY    28  22  76 W8        30.16S WCI  20

$$

INZ033-034-041-042-049-050-058-059-252300-
EAST CENTRAL INDIANA

CITY           SKY/WX    TMP DP  RH WIND       PRES   REMARKS
MUNCIE         CLOUDY    29  24  82 W13       30.14S WCI  19

$$

INZ060-061-067>069-081>083-085>088-252300-
SOUTHWEST INDIANA

CITY           SKY/WX    TMP DP  RH WIND       PRES   REMARKS
EVANSVILLE     CLOUDY    38  28  67 N8        30.18R
HUNTINGBURG *+ CLOUDY    37  27  65 NW7       30.17R
WASHINGTON +   CLOUDY    32  29  86 N7        30.17S WCI  26

$$

INZ062-063-066-070>080-084-089>092-252300-
SOUTH CENTRAL AND SOUTHEAST INDIANA

CITY           SKY/WX    TMP DP  RH WIND       PRES   REMARKS
BLOOMINGTON    CLOUDY    31  25  78 W5        30.15R WCI  26
NORTH VERNON + CLOUDY    37  28  70 N9        30.14

$$



USA.gov is the U.S. government's official web portal to all federal, state and local government web resources and services.